Regional Weather Roundup
Issued by NWS Upton, NY

Current Version | Previous Version | Text Only | Print | Product List | Glossary Off
Versions: 1 2 3 4 5 6 7 8 9 10 11 12 13 14 15 16 17 18 19 20 21 22 23 24 25 26 27 28 29 30
000 ASUS41 KOKX 210608 RWROKX REGIONAL WEATHER ROUNDUP NATIONAL WEATHER SERVICE NEW YORK NY 100 AM EST TUE NOV 21 2017 NOTE: "FAIR" INDICATES FEW OR NO CLOUDS BELOW 12,000 FEET WITH NO SIGNIFICANT WEATHER AND/OR OBSTRUCTIONS TO VISIBILITY. NYZ071-072-176-178-NJZ106-104-210700- NEW YORK CITY METRO AREA CITY SKY/WX TMP DP RH WIND PRES REMARKS Central Park CLEAR 43 24 47 W8G23 30.14F Bronx Bot Gard N/A 43 23 45 SW12 30.14S LaGuardia APRT PTCLDY 43 25 49 SW10 30.12F Kennedy INTL CLEAR 43 31 62 SW18 30.14F Breezy Point N/A 43 N/A N/A W12G18 N/A Newark/Liberty PTCLDY 39 25 57 SW13 30.13S WCI 31 Teterboro CLEAR 39 24 55 S8 30.12S WCI 33 $$ NYZ177-179-078>081-210700- LONG ISLAND NEW YORK CITY SKY/WX TMP DP RH WIND PRES REMARKS Jones Beach N/A 46 N/A N/A W14G20 N/A Matinecock PT N/A 43 N/A N/A SW13 N/A Farmingdale CLEAR 41 27 57 SW7 30.14S MacArthur/ISP CLEAR 40 28 62 SW8 30.13S WCI 34 Shirley CLEAR 41 29 62 SW5 30.14S Mt Sinai Harb N/A N/A N/A N/A S5 N/A Westhampton CLEAR 40 28 62 SW9 30.15F WCI 34 East Hampton FAIR 39 26 59 W7 30.13F WCI 34 Southold NOT AVBL Montauk N/A 46 28 49 SW8 30.14S $$ NYZ052-065-067-210700- HUDSON VALLEY CITY SKY/WX TMP DP RH WIND PRES REMARKS White Plains CLEAR 39 22 50 VRB5 30.10S Larchmont Harb N/A 45 N/A N/A SW15 N/A Croton On Huds N/A 41 N/A N/A S6 N/A Newburgh CLEAR 37 25 60 W7 30.08F WCI 32 Montgomery CLEAR 28 24 85 CALM 30.07S Poughkeepsie CLEAR 32 23 69 CALM 30.08S Albany CLEAR 35 25 66 S8 30.03S WCI 29 $$ NJZ001-105-106-008-010-013-015-019>022-104-210700- NEW JERSEY CITY SKY/WX TMP DP RH WIND PRES REMARKS Newark/Liberty PTCLDY 39 25 57 SW13 30.13S WCI 31 Teterboro CLEAR 39 24 55 S8 30.12S WCI 33 Caldwell CLEAR 38 24 57 VRB6 30.12S WCI 33 Somerville CLEAR 28 25 88 CALM 30.12F Linden FAIR 39 25 57 W6 30.14F WCI 35 Perth Amboy N/A 39 N/A N/A W7 N/A WCI 34 Sussex CLEAR 32 24 72 S5 30.09S WCI 27 Andover N/A 37 23 56 S3 30.10S Trenton CLEAR 34 26 72 CALM 30.14F Millville CLOUDY 44 33 65 SW5 30.18F Atlantic City CLOUDY 38 33 82 S3 30.18F Wrightstown PTCLDY 34 27 74 CALM 30.14S Toms River PTCLDY 38 29 70 SW9 30.17F WCI 31 Belmar CLEAR 38 26 62 SW7 30.16F WCI 33 $$ PAZ047>061-062-071-210700- EASTERN PENNSYLVANIA CITY SKY/WX TMP DP RH WIND PRES REMARKS Philadelphia CLOUDY 42 28 57 SW9 30.17S Allentown CLEAR 29 22 75 N3 30.12S Scranton CLEAR 36 23 59 CALM 30.06S $$ CTZ002-004>006-009-010-012-RIZ004-006-007-MAZ004-011-015-210700- SOUTHERN NEW ENGLAND IN CT CITY SKY/WX TMP DP RH WIND PRES REMARKS Bradley INTL PTCLDY 33 25 72 S9 30.08F WCI 25 Hartford CLEAR 37 26 64 S7 30.09F WCI 32 Danbury CLEAR 38 23 55 CALM 30.10S Wtrbury/Oxford CLEAR 34 23 64 SW5 30.09S WCI 30 Norwalk Harbor N/A 45 N/A N/A SW16 N/A Bridgeport CLEAR 43 28 55 W7 30.11F Meriden CLEAR 30 24 78 CALM 30.10S New Haven CLEAR 45 28 51 W9 30.11S Chester FAIR 39 25 56 SW7 30.10S WCI 34 Groton CLEAR 43 28 55 W5 30.12R Wilimantic PTCLDY 33 25 72 CALM 30.10S IN RI CITY SKY/WX TMP DP RH WIND PRES REMARKS Providence CLEAR 40 26 57 SW8 30.11S WCI 34 Block Island CLEAR 45 30 55 SW18G24 30.13S Westerly CLEAR 44 29 55 CALM 30.13R IN MA CITY SKY/WX TMP DP RH WIND PRES REMARKS Boston PTCLDY 39 28 64 S13 30.08R WCI 31 Worcester CLEAR 33 23 66 SW12 30.04S WCI 24 Westfield PTCLDY 33 25 72 S7 30.06S WCI 27 Provincetown CLEAR 43 30 60 W18G28 30.10S Nantucket CLOUDY 47 34 60 W14G22 30.13R $$ ANZ330-335-338-340-345-350-353-355-210700- COASTAL MARINE OBSERVATIONS STATION/POSITION TIME SKY/WX TEMP WIND PRES VSBY WAVE AIR SEA DIR/SP/G HT/PER (UTC) (F) (DEG/KT/KT) (MB) (MI) (FT/S) NY HARB ENTRANCE 0450 49 58 240/ 21/ 25 1019.9 4/ 5 20 S FIRE ISLAND 0450 51 57 250/ 23/ 29 1020.8 5/ 6 GREAT SOUTH BAY 0530 45 46 250/ 10/ 14 N/A HUDSON CANYON 0450 53 59 260/ 19/ 23 1021.8 5/ 6 KINGS POINT 0536 45 51 270/ 13/ 15 1020.8 EXECUTION ROCKS 0530 46 200/ 14/ 17 N/A WESTERN LI SOUND 0449 46 220/ 16/ 19 N/A 2/ 3 CENTRAL LI SOUND 0515 48 230/ 17/ 21 N/A 4 ROBBINS REEF 0548 42 250/ 12/ 16 1020.7 $$ >>>>>>>>>>>>>>>>>>>>>>>>>>>> KEY <<<<<<<<<<<<<<<<<<<<<<<<<<< > < > SKY/WX - Sky Condition/Present Weather < > TMP - Temperature in Fahrenheit < > DP - Dew Point in Fahrenheit < > RH - Relative Humidity in Percent < > WIND - Direction (from) and Speed in MPH < > PRES - Mean Sea Level Pressure (inches of Hg) < > WCI - Wind Chill Index < > VSB - VISIBILITY IN MILES < > HX - HEAT INDEX < > TC - TEMPERATURE IN CELSIUS < > VRB - VARIABLE WIND DIRECTION < > < >>>>>>>>>>>>>>>>>>>>>>>>>>>> KEY <<<<<<<<<<<<<<<<<<<<<<<<<<<

USA.gov is the U.S. government's official web portal to all federal, state and local government web resources and services.